Wilmington, DE

6:50 PM EST on November 15, 2019 (GMT -0500)
New Castle County

Weather History for KILG - October, 2019

Change the Weather History Date:

Tuesday, October 22, 2019

  Actual Average Record
Temperature  
Mean Temperature 61 °F 54 °F  
Max Temperature 65 °F 64 °F 81 °F (1975)
Min Temperature 57 °F 44 °F 26 °F (1940)
Degree Days  
Heating Degree Days 4 11  
Month to date heating degree days 111 177  
Since 1 July heating degree days 117 229  
Cooling Degree Days 0 0  
Month to date cooling degree days 46 15  
Year to date cooling degree days 1505 1142  
Growing Degree Days 10 (Base 50)    
Moisture  
Dew Point 60 °F    
Average Humidity 94    
Maximum Humidity 100    
Minimum Humidity 87    
Precipitation  
Precipitation 0.74 in 0.10 in 1.63 in (1970)
Month to date precipitation 3.41 2.50  
Year to date precipitation 40.01 35.58  
Snow  
Snow 0.00 in 0.00 in 0.00 in (1894)
Month to date snowfall 0.0 0.0  
Since 1 July snowfall 0.0 0.0  
Since 1 September snowfall 0.0 0.0  
Snow Depth 0.00 in    
Sea Level Pressure  
Sea Level Pressure 29.94 in    
Wind  
Wind Speed 8 mph (SE)    
Max Wind Speed 18 mph    
Max Gust Speed 24 mph    
Visibility 6 miles    
Events Rain    
T = Trace of Precipitation, MM = Missing Value Source: NWS Daily Summary

Daily Weather History Graph

Daily Weather History Graph

Search for Another Location

Airport or City:

Astronomy

Oct. 22, 2019 Rise Set
Actual Time 7:19 AM EDT 6:13 PM EDT
Civil Twilight 6:52 AM EDT 6:40 PM EDT
Nautical Twilight 6:20 AM EDT 7:12 PM EDT
Astronomical Twilight 5:49 AM EDT 7:43 PM EDT
Moon 12:28 AM EDT (10/22) 3:19 PM EDT (10/22)
Length of Visible Light 11h 48m
Length of Day
10h 53m
Last Quarter, 37% of the Moon is Illuminated
Oct 22
Last Quarter
Oct 27
New
Nov 4
First Quarter
Nov 12
Full
Nov 19
Last Quarter

Hourly Weather History & Observations

Time (EDT) Temp. Dew Point Humidity Pressure Visibility Wind Dir Wind Speed Gust Speed Precip Events Conditions
12:24 AM 59.0 °F 55.9 °F 90% 30.09 in 10.0 mi East 9.2 mph - N/A   Overcast
12:36 AM 59.0 °F 55.9 °F 90% 30.09 in 10.0 mi ESE 8.1 mph - N/A   Overcast
12:51 AM 59.0 °F 55.9 °F 90% 30.09 in 10.0 mi ESE 6.9 mph - N/A   Overcast
1:51 AM 57.9 °F 57.0 °F 97% 30.09 in 5.0 mi ESE 5.8 mph - N/A   Overcast
2:23 AM 57.9 °F 57.0 °F 97% 30.10 in 9.0 mi Calm Calm - N/A   Overcast
2:38 AM 57.9 °F 57.0 °F 97% 30.10 in 5.0 mi Calm Calm - 0.00 in Rain Light Rain
2:51 AM 57.9 °F 57.0 °F 97% 30.10 in 6.0 mi Calm Calm - 0.00 in   Overcast
3:33 AM 57.9 °F 55.9 °F 93% 30.08 in 10.0 mi ESE 5.8 mph - N/A   Overcast
3:51 AM 59.0 °F 55.9 °F 90% 30.07 in 10.0 mi ESE 4.6 mph - N/A   Overcast
4:18 AM 59.0 °F 55.9 °F 90% 30.06 in 10.0 mi ESE 4.6 mph - N/A   Overcast
4:51 AM 57.9 °F 55.9 °F 93% 30.06 in 10.0 mi East 4.6 mph - N/A   Overcast
4:58 AM 57.9 °F 55.9 °F 93% 30.05 in 10.0 mi East 8.1 mph - N/A   Overcast
5:17 AM 57.9 °F 57.0 °F 97% 30.05 in 10.0 mi East 5.8 mph - N/A   Overcast
5:38 AM 57.9 °F 57.0 °F 97% 30.04 in 10.0 mi East 4.6 mph - N/A   Overcast
5:51 AM 57.9 °F 57.0 °F 97% 30.04 in 10.0 mi East 9.2 mph - N/A   Overcast
6:51 AM 57.9 °F 57.0 °F 97% 30.03 in 8.0 mi East 10.4 mph - N/A   Overcast
7:35 AM 57.0 °F 57.0 °F 100% 30.02 in 8.0 mi East 8.1 mph - N/A   Overcast
7:51 AM 57.9 °F 57.0 °F 97% 30.04 in 9.0 mi East 4.6 mph - N/A   Overcast
8:21 AM 57.9 °F 57.0 °F 97% 30.03 in 1.8 mi ESE 5.8 mph - 0.00 in Rain Light Rain
8:51 AM 57.9 °F 57.9 °F 100% 30.04 in 1.8 mi East 6.9 mph - 0.00 in Rain Light Rain
8:58 AM 57.9 °F 57.9 °F 100% 30.04 in 3.0 mi ESE 5.8 mph - 0.00 in   Overcast
9:10 AM 57.9 °F 57.9 °F 100% 30.03 in 2.0 mi ESE 6.9 mph - 0.01 in   Overcast
9:35 AM 59.0 °F 57.9 °F 96% 30.03 in 1.8 mi ESE 5.8 mph - 0.01 in   Overcast
9:51 AM 59.0 °F 59.0 °F 100% 30.04 in 1.0 mi ESE 6.9 mph - 0.01 in Rain Light Rain
10:51 AM 60.1 °F 60.1 °F 100% 30.01 in 1.0 mi East 6.9 mph - 0.02 in Rain Light Rain
11:51 AM 61.0 °F 61.0 °F 100% 29.97 in 1.5 mi ESE 10.4 mph - 0.00 in   Overcast
12:23 PM 62.1 °F 62.1 °F 100% 29.96 in 3.0 mi ESE 11.5 mph - N/A   Overcast
12:41 PM 62.1 °F 62.1 °F 100% 29.94 in 2.0 mi ESE 10.4 mph - N/A   Overcast
12:48 PM 62.6 °F 62.6 °F 100% 29.93 in 1.8 mi SE 10.4 mph - N/A   Overcast
12:51 PM 62.1 °F 62.1 °F 100% 29.93 in 1.8 mi ESE 10.4 mph - N/A   Overcast
1:44 PM 63.0 °F 63.0 °F 100% 29.89 in 4.0 mi ESE 9.2 mph - N/A   Overcast
1:51 PM 64.0 °F 63.0 °F 96% 29.88 in 5.0 mi ESE 8.1 mph - N/A   Overcast
2:40 PM 64.9 °F 63.0 °F 93% 29.86 in 10.0 mi SSE 12.7 mph - 0.00 in   Overcast
2:51 PM 64.9 °F 63.0 °F 93% 29.86 in 10.0 mi SSE 13.8 mph - 0.00 in   Overcast
3:22 PM 64.9 °F 63.0 °F 93% 29.85 in 10.0 mi SSE 18.4 mph 24.2 mph N/A   Overcast
3:51 PM 64.0 °F 63.0 °F 96% 29.85 in 10.0 mi SSE 15.0 mph - 0.00 in Rain Light Rain
4:51 PM 64.0 °F 63.0 °F 96% 29.83 in 4.0 mi SE 12.7 mph 21.9 mph 0.01 in Rain Heavy Rain
5:10 PM 64.0 °F 64.0 °F 100% 29.84 in 1.8 mi SSE 9.2 mph - 0.06 in Rain Heavy Rain
5:27 PM 64.0 °F 63.0 °F 96% 29.82 in 0.8 mi SE 11.5 mph - 0.28 in Rain Heavy Rain
5:36 PM 64.0 °F 64.0 °F 100% 29.81 in 2.0 mi SE 8.1 mph - 0.35 in Rain Light Rain
5:41 PM 64.0 °F 64.0 °F 100% 29.82 in 4.0 mi SE 6.9 mph - 0.35 in Rain Light Rain
5:51 PM 64.0 °F 64.0 °F 100% 29.83 in 4.0 mi SSE 6.9 mph - 0.38 in Rain Heavy Rain
6:03 PM 64.0 °F 64.0 °F 100% 29.81 in 2.0 mi ESE 9.2 mph - 0.12 in Rain Heavy Rain
6:14 PM 64.0 °F 64.0 °F 100% 29.80 in 5.0 mi SE 13.8 mph - 0.16 in Rain Rain
6:51 PM 64.0 °F 64.0 °F 100% 29.81 in 4.0 mi SSE 8.1 mph - 0.18 in Rain Heavy Rain
7:44 PM 64.0 °F 64.0 °F 100% 29.82 in 3.0 mi South 6.9 mph - 0.08 in Rain Light Rain
7:51 PM 64.0 °F 64.0 °F 100% 29.82 in 3.0 mi South 9.2 mph - 0.09 in Rain Light Rain
8:06 PM 64.0 °F 64.0 °F 100% 29.82 in 3.0 mi SW 5.8 mph - 0.01 in Rain Light Rain
8:31 PM 63.0 °F 62.1 °F 97% 29.81 in 4.0 mi NW 6.9 mph - 0.03 in Rain Rain
8:51 PM 63.0 °F 63.0 °F 100% 29.81 in 10.0 mi NW 5.8 mph - 0.04 in Rain Light Rain
9:37 PM 63.0 °F 63.0 °F 100% 29.82 in 10.0 mi Calm Calm - 0.01 in Rain Light Rain
9:51 PM 63.0 °F 62.1 °F 97% 29.82 in 10.0 mi Calm Calm - 0.01 in   Overcast
10:15 PM 62.1 °F 62.1 °F 100% 29.82 in 10.0 mi WSW 3.5 mph - N/A   Overcast
10:51 PM 62.1 °F 62.1 °F 100% 29.83 in 10.0 mi West 6.9 mph - N/A   Overcast
11:09 PM 62.1 °F 62.1 °F 100% 29.83 in 10.0 mi WNW 12.7 mph - N/A   Overcast
11:18 PM 61.0 °F 60.1 °F 97% 29.84 in 10.0 mi NW 12.7 mph - N/A   Overcast
11:40 PM 61.0 °F 60.1 °F 97% 29.83 in 10.0 mi WNW 6.9 mph - N/A   Overcast
11:51 PM 61.0 °F 60.1 °F 97% 29.83 in 10.0 mi WNW 6.9 mph - N/A   Overcast